STARLINK-1105 (45218 NORAD) Tracking and Keplerian Element Data

This shows tracking and keplerian element data for the satellite.

Feedback or suggestion? Click here.




ElementValue
Catalog45218
NameSTARLINK-1105
Epoch Orbit2199
Epoch Day187.50002315
Epoch Year2020
RAAN313.5161
Inclination53.0013
Eccentricity0.0001686
Argument of Perigee107.4242
Mean Anonmoly101.4296
Mean Motion15.05599841
Decay Rate-0.00030415
L11 45218U 20012AS 20187.50002315 -.00030415 00000-0 -20761-2 0 9992
L22 45218 53.0013 313.5161 0001686 107.4242 101.4296 15.05599841 21996

Live tracking and technical data element details for STARLINK-1105 (NORAD 45218). STARLINK-1105 can be tracked NOW for your location showing map with azimuth and elevation plus other details from your city location.

Track the satellite on the map from your city or location and see movement details for azimuth, elevation, latitude, longitude, range, height, and movement on the map or in text.







IsCatalogInMostPopularTable: catalog: 45218, numindb: 25
Update: records affected: 1



GetName: 45218 STARLINK-1105

Hit Count: updated at: Mon, 06 Jul 2020 05:31:53 GMT